When you browse on this site, cookies collect data to enhance your experience and personalize the content and advertising you see.
Visit our Privacy Policy to learn more. By continuing to use the site, you agree to this use of cookies and data.
  • In France
  • List of Countries
  • For 7 days
  • Water Temperature
  • Weather Map
  • Weather Widgets
  • user-avatar
    Login

    Hourly Weather Escaldes-Engordany

    Today, 25 February, Tuesday

    Time Temperature Precipitation Wind Pressure Humidity
    00:00 +5°C° 0 mm 2 mps 639 mmHg 37%
    01:00 +5°C° 0 mm 1 mps 638 mmHg 38%
    02:00 +5°C° 0 mm 1 mps 638 mmHg 38%
    03:00 +5°C° 0 mm 1 mps 637 mmHg 39%
    04:00 +5°C° 0 mm 1 mps 637 mmHg 42%
    05:00 +5°C° 0 mm 1 mps 637 mmHg 45%
    06:00 +4°C° 0 mm 1 mps 637 mmHg 45%
    07:00 +5°C° 0 mm 1 mps 637 mmHg 47%
    08:00 +6°C° 0 mm 1 mps 638 mmHg 48%
    09:00 +7°C° 0 mm 1 mps 638 mmHg 50%
    10:00 +8°C° 0 mm 1 mps 638 mmHg 50%
    11:00 +8°C° 0 mm 1 mps 638 mmHg 49%
    12:00 +9°C° 0 mm 1 mps 638 mmHg 49%
    13:00 +8°C° 0 mm 2 mps 637 mmHg 51%
    14:00 +9°C° 0 mm 2 mps 637 mmHg 52%
    15:00 +9°C° 0 mm 2 mps 636 mmHg 53%
    16:00 +7°C° 0.2 mm 2 mps 636 mmHg 65%
    17:00 +5°C° 0.2 mm 2 mps 636 mmHg 76%
    18:00 +4°C° 0.2 mm 2 mps 635 mmHg 87%
    19:00 +3°C° 0.1 mm 2 mps 635 mmHg 88%
    20:00 +2°C° 0.1 mm 2 mps 635 mmHg 89%
    21:00 +2°C° 0.1 mm 2 mps 635 mmHg 90%
    22:00 +1°C° 0 mm 2 mps 635 mmHg 90%
    23:00 +1°C° 0 mm 2 mps 635 mmHg 89%

    Tomorrow, 26 February, Wednesday

    Time Temperature Precipitation Wind Pressure Humidity
    00:00 -1°C° 0 mm 3 mps 635 mmHg 89%
    01:00 -1°C° 0 mm 2 mps 634 mmHg 87%
    02:00 -1°C° 0 mm 2 mps 634 mmHg 86%
    03:00 -1°C° 0 mm 2 mps 634 mmHg 85%
    04:00 -2°C° 0.1 mm 2 mps 633 mmHg 85%
    05:00 -2°C° 0.1 mm 2 mps 633 mmHg 84%
    06:00 -2°C° 0.1 mm 2 mps 633 mmHg 84%
    07:00 -1°C° 0.2 mm 2 mps 634 mmHg 75%
    08:00 0°C° 0.2 mm 3 mps 634 mmHg 67%
    09:00 +1°C° 0.2 mm 3 mps 635 mmHg 58%
    10:00 +2°C° 0.1 mm 3 mps 635 mmHg 55%
    11:00 +1°C° 0.1 mm 4 mps 636 mmHg 52%
    12:00 +3°C° 0.1 mm 4 mps 636 mmHg 49%
    13:00 +3°C° 0.1 mm 4 mps 636 mmHg 51%
    14:00 +1°C° 0.1 mm 4 mps 636 mmHg 52%
    15:00 +2°C° 0.1 mm 3 mps 635 mmHg 54%
    16:00 0°C° 0.1 mm 3 mps 635 mmHg 61%
    17:00 -1°C° 0.1 mm 3 mps 635 mmHg 68%
    18:00 -3°C° 0.1 mm 2 mps 635 mmHg 75%
    19:00 -3°C° 0 mm 2 mps 635 mmHg 77%
    20:00 -3°C° 0 mm 2 mps 636 mmHg 78%
    21:00 -4°C° 0 mm 2 mps 636 mmHg 80%
    22:00 -4°C° 0 mm 2 mps 636 mmHg 78%
    23:00 -2°C° 0 mm 1 mps 636 mmHg 76%

    Day after tomorrow, 27 February, Thursday

    Time Temperature Precipitation Wind Pressure Humidity
    00:00 -2°C° 0 mm 1 mps 636 mmHg 73%
    01:00 -2°C° 0 mm 1 mps 636 mmHg 68%
    02:00 -2°C° 0 mm 1 mps 635 mmHg 63%
    03:00 -1°C° 0 mm 1 mps 635 mmHg 58%
    04:00 -1°C° 0 mm 1 mps 635 mmHg 57%
    05:00 -1°C° 0 mm 1 mps 635 mmHg 56%
    06:00 -1°C° 0 mm 1 mps 635 mmHg 55%
    07:00 +1°C° 0 mm 1 mps 636 mmHg 51%
    08:00 +3°C° 0 mm 1 mps 636 mmHg 46%
    09:00 +5°C° 0 mm 1 mps 637 mmHg 42%
    10:00 +6°C° 0 mm 1 mps 637 mmHg 38%
    11:00 +7°C° 0 mm 2 mps 638 mmHg 35%
    12:00 +9°C° 0 mm 2 mps 638 mmHg 31%
    13:00 +8°C° 0 mm 2 mps 637 mmHg 38%
    14:00 +8°C° 0 mm 2 mps 637 mmHg 45%
    15:00 +8°C° 0 mm 3 mps 636 mmHg 52%
    16:00 +6°C° 0.1 mm 2 mps 636 mmHg 64%
    17:00 +4°C° 0.1 mm 2 mps 636 mmHg 76%
    18:00 +3°C° 0.1 mm 2 mps 635 mmHg 87%
    19:00 +3°C° 0.2 mm 2 mps 635 mmHg 90%
    20:00 +3°C° 0.2 mm 2 mps 636 mmHg 93%
    21:00 +3°C° 0.2 mm 2 mps 636 mmHg 95%
    22:00 +3°C° 0.3 mm 2 mps 636 mmHg 95%
    23:00 +3°C° 0.3 mm 2 mps 637 mmHg 96%

    28 February, Friday

    Time Temperature Precipitation Wind Pressure Humidity
    00:00 +3°C° 0.3 mm 2 mps 637 mmHg 96%
    01:00 +3°C° 0.1 mm 2 mps 637 mmHg 96%
    02:00 +4°C° 0.1 mm 1 mps 637 mmHg 95%
    03:00 +4°C° 0.1 mm 1 mps 637 mmHg 95%
    04:00 +3°C° 0.1 mm 1 mps 637 mmHg 94%
    05:00 +3°C° 0.1 mm 1 mps 637 mmHg 94%
    06:00 +3°C° 0.1 mm 1 mps 637 mmHg 93%
    07:00 +4°C° 0 mm 1 mps 638 mmHg 86%
    08:00 +6°C° 0 mm 1 mps 639 mmHg 79%
    09:00 +7°C° 0 mm 0 mps 640 mmHg 72%
    10:00 +9°C° 0 mm 1 mps 640 mmHg 68%
    11:00 +10°C° 0 mm 1 mps 640 mmHg 64%
    12:00 +11°C° 0 mm 1 mps 641 mmHg 59%
    13:00 +11°C° 0 mm 1 mps 640 mmHg 60%
    14:00 +11°C° 0 mm 1 mps 640 mmHg 61%
    15:00 +11°C° 0 mm 1 mps 640 mmHg 62%
    16:00 +10°C° 0 mm 1 mps 639 mmHg 71%
    17:00 +8°C° 0 mm 1 mps 638 mmHg 81%
    18:00 +6°C° 0 mm 1 mps 637 mmHg 90%
    19:00 +6°C° 0 mm 1 mps 637 mmHg 92%
    20:00 +5°C° 0 mm 1 mps 637 mmHg 93%
    21:00 +4°C° 0 mm 2 mps 637 mmHg 94%
    22:00 +4°C° 0 mm 2 mps 636 mmHg 93%
    23:00 +4°C° 0 mm 2 mps 636 mmHg 93%

    29 February, Saturday

    Time Temperature Precipitation Wind Pressure Humidity
    00:00 +4°C° 0 mm 2 mps 635 mmHg 92%
    01:00 +3°C° 0 mm 2 mps 634 mmHg 91%
    02:00 +3°C° 0 mm 2 mps 634 mmHg 91%
    03:00 +3°C° 0 mm 2 mps 633 mmHg 90%
    04:00 +3°C° 0 mm 2 mps 632 mmHg 87%
    05:00 +3°C° 0 mm 2 mps 632 mmHg 84%
    06:00 +3°C° 0 mm 2 mps 631 mmHg 81%
    07:00 +4°C° 0 mm 2 mps 632 mmHg 76%
    08:00 +4°C° 0 mm 3 mps 632 mmHg 71%
    09:00 +7°C° 0 mm 3 mps 633 mmHg 67%
    10:00 +8°C° 0 mm 3 mps 633 mmHg 63%
    11:00 +9°C° 0 mm 3 mps 633 mmHg 58%
    12:00 +10°C° 0 mm 3 mps 634 mmHg 54%
    13:00 +9°C° 0.1 mm 2 mps 633 mmHg 63%
    14:00 +8°C° 0.1 mm 2 mps 633 mmHg 71%
    15:00 +6°C° 0.1 mm 2 mps 632 mmHg 79%
    16:00 +5°C° 0.7 mm 2 mps 633 mmHg 83%
    17:00 +4°C° 0.7 mm 2 mps 633 mmHg 88%
    18:00 +4°C° 0.7 mm 1 mps 633 mmHg 92%
    19:00 +2°C° 0.5 mm 2 mps 633 mmHg 92%
    20:00 +1°C° 0.5 mm 2 mps 633 mmHg 91%
    21:00 -1°C° 0.5 mm 2 mps 634 mmHg 91%
    22:00 -1°C° 0.1 mm 2 mps 634 mmHg 90%
    23:00 -2°C° 0.1 mm 2 mps 634 mmHg 88%

    1 March, Sunday

    Time Temperature Precipitation Wind Pressure Humidity
    00:00 -2°C° 0.1 mm 2 mps 634 mmHg 87%
    01:00 -3°C° 0 mm 2 mps 634 mmHg 87%
    02:00 -3°C° 0 mm 2 mps 634 mmHg 87%
    03:00 -4°C° 0 mm 2 mps 633 mmHg 86%
    04:00 -4°C° 0 mm 2 mps 633 mmHg 83%
    05:00 -2°C° 0 mm 1 mps 633 mmHg 79%
    06:00 -2°C° 0 mm 1 mps 633 mmHg 75%
    07:00 0°C° 0 mm 1 mps 634 mmHg 70%
    08:00 +2°C° 0 mm 1 mps 635 mmHg 66%
    09:00 +3°C° 0 mm 2 mps 635 mmHg 61%
    10:00 +4°C° 0 mm 2 mps 636 mmHg 58%
    11:00 +5°C° 0 mm 2 mps 636 mmHg 55%
    12:00 +7°C° 0 mm 2 mps 636 mmHg 52%
    13:00 +7°C° 0 mm 2 mps 636 mmHg 52%
    14:00 +7°C° 0 mm 2 mps 635 mmHg 53%
    15:00 +7°C° 0 mm 2 mps 635 mmHg 54%
    16:00 +5°C° 0 mm 2 mps 634 mmHg 62%
    17:00 +5°C° 0 mm 1 mps 634 mmHg 71%
    18:00 +3°C° 0 mm 1 mps 633 mmHg 80%
    19:00 +2°C° 0 mm 1 mps 633 mmHg 80%
    20:00 +2°C° 0 mm 1 mps 633 mmHg 81%
    21:00 +2°C° 0 mm 1 mps 633 mmHg 81%
    22:00 +2°C° 0 mm 1 mps 633 mmHg 81%
    23:00 +1°C° 0 mm 2 mps 632 mmHg 81%
    Show more